Location: Im Fang
(46.6019°N, 7.2397°E)
Time: 04:07:29
(UTC+00:00)

Envisat - Pass Details

Date: 05 March 2021
Orbit: 764 x 766 km, 98.1° (Epoch: 18 April)

Event Time Altitude Azimuth Distance (km) Brightness Sun altitude
Rises 03:44:55 0° 32° (NNE) 3,243 7.0 -24.3°
Reaches altitude 10° 03:48:35 10° 59° (ENE) 2,310 6.5 -23.7°
Maximum altitude 03:50:56 13° 87° (E) 2,090 6.2 -23.3°
Drops below altitude 10° 03:53:18 10° 115° (ESE) 2,301 6.1 -22.9°
Sets 03:56:55 0° 142° (SE) 3,220 6.5 -22.3°
